#timestamp,LO_Frequency,Hit,StdDev 
1617868815.6,286047002.4,N
1617868835.5,286047001.2,N
1617868855.3,286046999.3,N
1617868875.2,286046998.6,N
1617868895.9,286047002.1,N
1617868915.7,286047002.0,N
1617868935.6,286047003.9,N
1617868955.4,286047001.5,N
1617868975.3,286047000.3,N
1617868995.1,286046998.2,N
1617868996.0,286046998.2,N
1617869015.8,286046998.1,N
1617869035.7,286046998.8,N
1617869055.5,286047000.3,N
1617869075.3,286047003.7,N
1617869095.2,286047002.2,N
1617869115.0,286047000.2,N
1617869115.9,286047000.2,N
1617869135.8,286046998.6,N
1617869155.6,286047002.4,N
1617869175.5,286047001.8,N
1617869195.3,286047002.3,N
1617869215.1,286046998.5,N
1617869235.9,286047000.7,N
1617869255.7,286046998.3,N
1617869275.6,286047002.7,N
1617869295.4,286047002.4,N
1617869315.2,286047002.1,N
1617869335.1,286047006.0,Y
1617869336.0,286047006.0,P
1617869355.8,286047003.0,N
1617869375.7,286047006.6,P
1617869395.5,286047010.1,Y
1617869415.3,286047003.8,P
1617869435.2,286047003.8,P
1617869455.0,286047002.2,P
1617869455.9,286047002.2,N
1617869475.8,286046999.7,N
1617869495.6,286047002.4,N
1617869515.4,286047002.2,N
1617869535.3,286047000.0,N
1617869555.1,286047002.3,N
1617869575.9,286047004.1,N
1617869595.7,286047003.8,N
1617869615.5,286047000.4,N
1617869635.4,286046999.1,N
1617869655.2,286046998.9,N
1617869675.1,286046996.9,N
1617869676.0,286046996.9,N
1617869695.8,286046997.1,N
1617869715.6,286046999.4,N
1617869735.5,286047002.1,N
1617869755.3,286047002.3,N
1617869775.1,286047001.6,N
1617869795.9,286047002.0,N
1617869815.7,286047001.1,N
1617869835.6,286047001.9,N
1617869855.4,286047002.1,N
1617869875.2,286047000.4,N
1617869895.1,286047000.9,N
1617869896.0,286047000.9,N
1617869915.8,286047000.7,N
1617869935.6,286047000.3,N
1617869955.5,286046999.9,N
1617869975.3,286046998.7,N
1617869995.2,286046998.7,N
1617870015.9,286046998.8,N
1617870035.7,286046999.0,N
1617870055.6,286046998.8,N
1617870075.4,286046998.4,N
1617870095.2,286047001.2,N
1617870115.1,286046998.7,N
1617870116.0,286046998.7,N
1617870135.8,286047000.5,N
1617870157.4,286047001.0,N
1617870175.4,286046998.7,N
1617870195.3,286046998.6,N
1617870215.1,286047000.4,N
1617870235.8,286047000.7,N
1617870255.7,286046998.7,N
1617870275.5,286046998.9,N
1617870295.4,286046999.3,N
1617870315.2,286046998.8,N
1617870335.0,286046999.4,N
1617870335.9,286046999.4,N
1617870355.8,286046999.7,N
1617870375.6,286047001.4,N
1617870395.4,286047003.1,N
1617870415.3,286047003.8,Y
1617870435.1,286046999.7,P
1617870455.9,286046998.3,P
1617870475.7,286046998.7,N
1617870495.5,286046998.4,N
1617870515.4,286046999.3,N
1617870535.2,286046998.8,N
1617870555.0,286046998.8,N
1617870555.9,286046998.8,N
1617870575.8,286046999.0,N
1617870595.6,286046998.9,N
1617870615.5,286046998.9,N
1617870635.3,286046998.4,Y
1617870655.2,286046998.4,P
1617870675.9,286047000.7,N
1617870695.7,286047000.9,N
1617870715.6,286046998.8,N
1617870735.4,286047001.2,N
1617870755.2,286046996.9,N
1617870775.1,286046995.1,Y
1617870776.0,286046995.1,P
1617870795.8,286046993.4,P
1617870815.7,286046997.3,N
1617870835.5,286046999.0,N
1617870855.3,286046999.4,N
1617870875.2,286047000.7,N
1617870895.9,286046999.2,N
1617870915.7,286046999.0,N
1617870935.6,286046998.8,N
1617870955.4,286046998.6,N
1617870975.2,286047000.1,N
1617870995.1,286047002.5,N
1617870996.0,286047002.5,N
1617871015.8,286047001.4,N
1617871035.7,286047003.9,N
1617871055.5,286047004.3,N
1617871075.3,286047002.8,N
1617871095.2,286047002.1,N
1617871115.0,286047004.6,N
1617871115.9,286047004.6,N
1617871135.8,286047006.2,N
1617871155.6,286047006.3,N
1617871175.4,286047005.0,N
1617871195.3,286047006.8,N
1617871215.1,286047005.2,N
1617871235.8,286047003.3,N
1617871255.7,286047000.2,N
1617871275.5,286047000.2,N
1617871295.4,286046999.2,N
1617871315.2,286046998.6,N
1617871335.0,286047000.5,N
1617871335.9,286047000.5,N
1617871355.8,286047002.1,N
1617871375.6,286047001.0,N
1617871395.4,286046999.3,N
1617871415.3,286047000.6,N
1617871435.1,286046999.7,N
1617871455.9,286047002.6,N
1617871475.7,286047003.2,N
1617871495.5,286047004.2,N
1617871515.4,286047004.4,N
1617871535.2,286047000.3,N
1617871555.0,286047001.4,N
1617871555.9,286047001.4,N
1617871575.8,286047006.0,N
1617871595.6,286047006.5,N
1617871615.5,286047007.6,Y
1617871635.3,286047002.4,P
1617871655.1,286047002.7,P
1617871675.9,286046999.9,N
1617871695.7,286046999.2,N
1617871715.5,286046997.4,N
1617871735.4,286046997.2,N
1617871755.2,286046996.9,N
1617871775.1,286046997.1,N
1617871776.0,286046997.1,N
1617871795.8,286046997.1,N
1617871815.6,286046997.1,N
1617871835.5,286046995.5,N
1617871855.3,286046995.2,N
1617871875.2,286046995.4,N
1617871895.9,286046999.4,N
1617871915.7,286046997.3,N
1617871935.6,286046995.8,N
1617871955.4,286046994.9,N
1617871975.3,286046998.2,N
1617871995.1,286047001.3,N
1617871996.0,286047001.3,N
1617872015.8,286047000.1,N
1617872035.7,286047001.1,N
1617872055.5,286047000.5,N
1617872075.3,286046998.7,N
1617872095.2,286046996.6,N
1617872115.0,286046997.8,N
1617872115.9,286046997.8,N
1617872135.8,286046997.9,N
1617872155.6,286046997.7,N
1617872175.5,286046997.9,N
1617872195.3,286046997.9,N
1617872215.1,286046996.2,N
1617872235.9,286046996.1,N
1617872255.7,286046999.2,N
1617872275.5,286046995.7,N
1617872295.4,286046996.0,N
1617872315.2,286046997.8,N
1617872335.1,286046997.4,N
1617872336.0,286046997.4,N
1617872355.8,286046997.9,N
1617872375.6,286046997.9,N
1617872395.5,286046995.6,N
